This is the latest recevied weather packets stored in our database for station/object EA1ZE. If no packets are shown the sender has not sent any weather packets the latest 10 day(s).
| Time | Temp. | Humidity | Pressure | Rain* | Wind** | Luminosity | Snow |
|---|---|---|---|---|---|---|---|
| 1788039006 | 22.22° C | 52% | 1017.2 hPa | 0 mm | - | - | - |
| 1788038106 | 22.78° C | 51% | 1017 hPa | 0 mm | - | - | - |
| 1788037206 | 22.78° C | 50% | 1016.9 hPa | 0 mm | - | - | - |
| 1788036306 | 23.33° C | 48% | 1016.9 hPa | 0 mm | - | - | - |
| 1788035406 | 23.33° C | 48% | 1016.9 hPa | 0 mm | - | - | - |
| 1788034511 | 23.89° C | 48% | 1017 hPa | 0 mm | - | - | - |
| 1788033604 | 24.44° C | 47% | 1016.9 hPa | 0 mm | - | - | - |
| 1788032704 | 24.44° C | 46% | 1016.9 hPa | 0 mm | - | - | - |
| 1788031805 | 25° C | 45% | 1016.7 hPa | 0 mm | - | - | - |
| 1788030903 | 25.56° C | 44% | 1016.7 hPa | 0 mm | - | - | - |
| 1788030002 | 26.11° C | 43% | 1016.6 hPa | 0 mm | - | - | - |
| 1788029102 | 26.67° C | 41% | 1016.7 hPa | 0 mm | - | - | - |
| 1788028270 | 27.22° C | 40% | 1016.7 hPa | 0 mm | - | - | - |
| 1788027364 | 27.22° C | 39% | 1016.7 hPa | 0 mm | - | - | - |
| 1788026459 | 27.78° C | 39% | 1016.7 hPa | 0 mm | - | - | - |
| 1788025558 | 27.78° C | 38% | 1016.7 hPa | 0 mm | - | - | - |
| 1788024665 | 27.78° C | 37% | 1016.8 hPa | 0 mm | - | - | - |
| 1788023757 | 27.78° C | 37% | 1016.8 hPa | 0 mm | - | - | - |
| 1788022856 | 28.33° C | 36% | 1016.9 hPa | 0 mm | - | - | - |
| 1788021954 | 28.33° C | 36% | 1017 hPa | 0 mm | - | - | - |
| 1788021061 | 28.33° C | 35% | 1016.9 hPa | 0 mm | - | - | - |
| 1788020152 | 28.33° C | 35% | 1017.1 hPa | 0 mm | - | - | - |
| 1788019250 | 27.78° C | 35% | 1017.3 hPa | 0 mm | - | - | - |
| 1788018349 | 27.78° C | 35% | 1017.4 hPa | 0 mm | - | - | - |
| 1788017460 | 27.78° C | 35% | 1017.5 hPa | 0 mm | - | - | - |
* Rain latest hour (hover to see other rain measurements)
** Current wind speed in m/s (hover to see current wind gust speed)